Location: Unspecified
(0.0000°N, 0.0000°E)
Time: 15:52:17
(UTC+00:00)

SO-50 - Visible Passes

Search period start: 11 June 2026 00:00
Search period end: 21 June 2026 00:00
Orbit: 567 x 673 km, 64.6° (Epoch: 11 June)

Date Brightness Start Highest point End Pass type
(mag) Time Alt. Az. Time Alt. Az. Time Alt. Az.
11 Jun ? 04:25:51 10° NNW 04:30:22 86° ENE 04:34:46 10° SSE visible
12 Jun ? 03:06:42 10° NE 03:08:02 11° ENE 03:09:21 10° E visible
12 Jun ? 04:43:45 10° NW 04:47:45 32° WSW 04:51:40 10° S visible
